Regional Weather Roundup
Issued by NWS

Home | Current Version | Previous Version | Graphics & Text | Print | Product List | Glossary On
Versions: 1 2 3 4 5 6 7 8 9 10 11 12 13 14 15 16 17 18 19 20 21 22 23 24 25 26 27 28 29 30 31 32 33 34 35 36 37 38 39 40 41 42 43 44 45 46 47 48 49 50
000
ASUS43 KMPX 262210
RWRMN
WEATHER ROUNDUP FOR MINNESOTA
NATIONAL WEATHER SERVICE TWIN CITIES/CHANHASSEN MN
500 PM CDT SUN APR 26 2015


NOTE: "FAIR" INDICATES FEW OR NO CLOUDS BELOW 12,000 FEET WITH NO
SIGNIFICANT WEATHER AND/OR OBSTRUCTIONS TO VISIBILITY. N/A MEANS
CURRENT SKY AND/OR WEATHER CONDITIONS ARE NOT AVAILABLE.

MNZ060>063-068>070-262300-
   Twin Cities Metro

CITY           SKY/WX    TMP DP  RH WIND       PRES   REMARKS
TWIN CITIES    MOSUNNY   63  24  22 N12       30.08F
ST PAUL        SUNNY     63  21  20 N10       30.09S
CRYSTAL        SUNNY     64  21  19 NE7       30.08S
BLAINE         SUNNY     64  21  19 E6        30.08F
LAKEVILLE      SUNNY     59  27  29 NE7       30.07F
EDEN PRAIRIE   SUNNY     62  20  19 CALM      30.07S
SOUTH ST PAUL  SUNNY     62  21  20 N3        30.08S
LAKE ELMO      FAIR      63  25  23 NE7       30.09S
$$
MNZ001>005-007-008-013>017-022>024-027-028-262300-
   Northwest Minnesota

CITY           SKY/WX    TMP DP  RH WIND       PRES   REMARKS
BEMIDJI        MOSUNNY   61  22  22 SE6       30.12F
HALLOCK        SUNNY     68  18  14 S9G16     30.10S
ROSEAU         SUNNY     66  25  20 S5        30.12S
WARROAD        SUNNY     54  30  40 NE12      30.15S
THIEF RVR FALL SUNNY     64  25  22 CALM      30.12F
CROOKSTON      SUNNY     66  27  22 S3        30.11F
FOSSTON        SUNNY     70  19  14 NW5       30.12S
DETROIT LAKES  MOSUNNY   61  21  21 SE6       30.12F
MOORHEAD       SUNNY     64  25  22 E3        30.10F
PARK RAPIDS    SUNNY     64  15  15 NE8       30.11F
MAHNOMEN       FAIR      64  23  21 CALM      30.10S
$$
MNZ006-009>011-018-025>026-262300-
   North Central Minnesota

CITY           SKY/WX    TMP DP  RH WIND       PRES   REMARKS
BAUDETTE       MOSUNNY   64  24  21 N9        30.14S
FLAG ISLAND    MOSUNNY   54  27  35 SE7       30.15S
INTL FALLS     SUNNY     60   7  12 NW6       30.15F
WASKISH        MOSUNNY   57  30  35 CALM      30.13F
BIG FORK       SUNNY     64  12  13 CALM      30.13S
LONGVILLE      SUNNY     61  16  17 NW7       30.12S
GRAND RAPIDS   SUNNY     61  16  17 NW6       30.13S
CRANE LAKE     SUNNY     57  12  17 CALM      30.16F
ORR            SUNNY     61   9  12 NW3       30.12S
COOK           SUNNY     61  18  18 CALM      30.14S
WALKER         FAIR      59  19  20 SE5       30.13S
$$
MNZ012-019>021-037-262300-
   Northeast Minnesota

CITY           SKY/WX    TMP DP  RH WIND       PRES   REMARKS
DULUTH         SUNNY     53  13  20 SE8       30.13F
ELY            SUNNY     57  14  18 NE7       30.13S
HIBBING        SUNNY     62  13  14 NW7       30.12F
EVELETH        SUNNY     59  18  20 NE7       30.13S
DULUTH HARBOR  SUNNY     39  34  81 N3        30.18S
TWO HARBORS    SUNNY     52  28  40 E6        30.14S
SILVER BAY     SUNNY     50  25  37 S3        30.14F
GRAND MARAIS     N/A     43  33  68 W7        30.17F
G MARAIS ARPRT SUNNY     48  25  40 S7        30.14S
$$
MNZ029>031-032-039>041-046>048-054>057-064-262300-
   West Central Minnesota

CITY           SKY/WX    TMP DP  RH WIND       PRES   REMARKS
FERGUS FALLS   SUNNY     63  14  15 E9        30.11S
WHEATON        SUNNY     63  27  25 NE5       30.11S
MORRIS         SUNNY     64  23  20 NE9       30.09S
ALEXANDRIA     SUNNY     62  20  19 NE7       30.11F
ELBOW LAKE     FAIR      62  23  22 E5        30.11S
WADENA         SUNNY     63  23  22 E7        30.11S
GLENWOOD       SUNNY     63  18  17 NE13      30.11S
APPLETON       SUNNY     66  18  15 E12       30.08F
BENSON         SUNNY     64   9  11 E7        30.09F
ORTONVILLE     SUNNY     64  25  22 NE10      30.08F
MADISON        SUNNY     64  25  22 NE9       30.08S
WILLMAR        FAIR      63  18  17 NE8       30.10F
$$
MNZ033>034-036-042>043-049>051-058-059-262300-
   Central Minnesota

CITY           SKY/WX    TMP DP  RH WIND       PRES   REMARKS
ST CLOUD       SUNNY     60  19  20 E7        30.10S
SAUK CENTRE    FAIR      60  16  17 N5        30.11S
PAYNESVILLE    SUNNY     58  15  18 N9        30.10S
AITKIN         SUNNY     63  -9   5 N6        30.10F
PINE RIVER     SUNNY     61  27  27 CALM      30.14F
BRAINERD       SUNNY     59  10  14 NE5       30.12F
STAPLES        SUNNY     61  12  15 CALM      30.11F
LONG PRAIRIE   FAIR      59  14  17 N5        30.11F
LITTLE FALLS   SUNNY     59  10  14 NE5       30.11S
LITCHFIELD     SUNNY     63  18  17 N7        30.09F
BUFFALO        SUNNY     62  18  18 N8        30.09F
MAPLE LAKE     SUNNY     62  24  23 NE5       30.10S
$$
MNZ037-044-045-052-053-262300-
   East Central Minnesota

CITY           SKY/WX    TMP DP  RH WIND       PRES   REMARKS
PRINCETON      SUNNY     63  21  20 NE10      30.10F
MORA           SUNNY     61  23  23 NE6       30.12S
CAMBRIDGE      SUNNY     64  37  36 NE8       30.08F
RUSH CITY      SUNNY     61  22  22 NE7       30.10S
MOOSE LAKE     SUNNY     59  21  23 CALM      30.11F
HINCKLEY       FAIR      61  23  23 NE10      30.11S
CLOQUET        SUNNY     55   3  12 SE8       30.13S
MCGREGOR       SUNNY     63  19  19 NE3       30.12S
$$
MNZ071>073-080-081-089-090-097-098-262300-
   Southwest Minnesota

CITY           SKY/WX    TMP DP  RH WIND       PRES   REMARKS
MONTEVIDEO     SUNNY     66  25  20 NE7       30.09S
GRANITE FALLS  SUNNY     64  27  24 NE9G17    30.09S
CANBY          SUNNY     65  26  22 NE10      30.08S
MARSHALL       SUNNY     64  25  22 NE12      30.06S
REDWOOD FALLS  SUNNY     65  19  17 N8        30.06F
OLIVIA         SUNNY     61  19  20 E7        30.07S
PIPESTONE      SUNNY     63  27  25 NE7       30.05F
WINDOM         SUNNY     64  25  22 NE8       30.05S
WORTHINGTON    SUNNY     63  28  27 E6G17     30.04F
JACKSON        SUNNY     64  25  22 NE6G18    30.05S
TRACY          SUNNY     66  27  22 NE8       30.06S
SLAYTON        SUNNY     64  26  23 NE3       30.06S
$$
MNZ065>067-074>077-082>085-091>093-262300-
   South Central Minnesota

CITY           SKY/WX    TMP DP  RH WIND       PRES   REMARKS
MANKATO        SUNNY     63  21  20 CALM      30.06F
NEW ULM        SUNNY     64  19  17 CALM      30.05F
ST JAMES       SUNNY     66  19  16 N5        30.06
FAIRMONT       SUNNY     64  28  25 NE12      30.04F
GLENCOE        SUNNY     63  22  20 N6        30.07S
FARIBAULT      SUNNY     63  21  20 N7        30.07S
OWATONNA       SUNNY     61  19  20 NE5       30.06F
WASECA         SUNNY     59  23  25 CALM      30.07F
ALBERT LEA     SUNNY     61  25  25 N8        30.05F
$$
MNZ078>079-086>088-094>096-262300-
   Southeast Minnesota

CITY           SKY/WX    TMP DP  RH WIND       PRES   REMARKS
ROCHESTER      SUNNY     59  26  28 NE10      30.06F
RED WING       SUNNY     63  19  19 NE5       30.06S
STANTON        SUNNY     61  23  22 N7        30.06F
DODGE CENTER   SUNNY     57  27  30 N8        30.06F
WINONA         SUNNY     61  25  25 N8        30.05S
AUSTIN         SUNNY     57  27  30 N5        30.05F
PRESTON        SUNNY     57  27  31 N12       30.05F
$$
ABBREVIATIONS USED IN REMARKS
   TC - TEMPERATURES IN CELSIUS
  WCI - WIND CHILL INDEX
   HX - HEAT INDEX
  VSB - VISIBILITY
$$



USA.gov is the U.S. government's official web portal to all federal, state and local government web resources and services.